User: anonymous   Login
Location: Unspecified
(0.0000°N, 0.0000°E)
Time: 17:50:22
(UTC+00:00)
Language:

FENGYUN 1C DEB - Orbit

View from above orbital plane
View from above orbital plane
View from above satellite
View from above satellite

Ground track
Ground track

The orbit data is extracted from the following two-line orbital elements,

1 33601U 99025DCJ 22221.39801102  .00001271  00000-0  78111-3 0  9993
2 33601  98.3358 106.3639 0175326   9.0145 351.4101 13.99880040735497
Epoch (UTC): 09 August 2022 09:33:08
Eccentricity: 0.0175326
inclination: 98.3358°
perigee height: 767 km
apogee height: 1022 km
right ascension of ascending node: 106.3639°
argument of perigee: 9.0145°
revolutions per day: 13.99880040
mean anomaly at epoch: 351.4101°
orbit number at epoch: 73549

The dashed part of the orbit path shows where the satellite is in the earth's shadow,  

DLR